Location: Asheville, NC
(35.6000°N, 82.5500°W)
Time: 22:37:25
(UTC-05:00)

STARS - Pass Details

Date: 03 January 2018
Orbit: 625 x 641 km, 98.3° (Epoch: 17 January)

Event Time Altitude Azimuth Distance (km) Brightness Sun altitude
Rises 06:47:44 0° 204° (SSW) 2,900 ? -10.5°
Reaches altitude 10° 06:50:36 10° 225° (SW) 1,996 ? -10.0°
Maximum altitude 06:53:25 17° 265° (W) 1,590 ? -9.5°
Enters shadow 06:56:03 11° 304° (NW) 1,947 ? -9.0°
